Time,TemperatureF,DewpointF,PressureIn,WindDirection,WindDirectionDegrees,WindSpeedMPH,WindSpeedGustMPH,Humidity,HourlyPrecipIn,Conditions,Clouds,dailyrainin,SoftwareType,DateUTC
2013-11-30 00:05:00,56.0,41.9,29.98,West,278,1.0,3.0,59,0.00,,,0.00,Wunderground v.1.15,2013-11-30 07:05:00,
2013-11-30 00:10:00,55.8,41.7,29.99,West,278,0.0,0.0,59,0.00,,,0.00,Wunderground v.1.15,2013-11-30 07:10:00,
2013-11-30 00:15:00,55.5,41.4,29.99,WNW,291,0.0,2.0,59,0.00,,,0.00,Wunderground v.1.15,2013-11-30 07:15:00,
2013-11-30 00:20:00,55.5,41.8,29.98,WNW,288,1.0,3.0,60,0.00,,,0.00,Wunderground v.1.15,2013-11-30 07:20:00,
2013-11-30 00:25:00,55.2,41.5,29.98,West,269,2.0,3.0,60,0.00,,,0.00,Wunderground v.1.15,2013-11-30 07:25:00,
2013-11-30 00:35:00,55.4,41.3,29.98,West,280,2.0,3.0,59,0.00,,,0.00,Wunderground v.1.15,2013-11-30 07:35:00,
2013-11-30 00:40:00,56.0,41.4,29.98,West,280,2.0,2.0,58,0.00,,,0.00,Wunderground v.1.15,2013-11-30 07:40:00,
2013-11-30 00:45:00,56.0,41.9,29.98,WNW,283,2.0,2.0,59,0.00,,,0.00,Wunderground v.1.15,2013-11-30 07:45:00,
2013-11-30 00:50:00,55.7,41.6,29.98,WNW,291,2.0,3.0,59,0.00,,,0.00,Wunderground v.1.15,2013-11-30 07:50:00,
2013-11-30 00:55:00,55.5,41.4,29.98,WNW,297,3.0,4.0,59,0.00,,,0.00,Wunderground v.1.15,2013-11-30 07:55:00,
2013-11-30 01:00:00,55.5,41.4,29.98,WNW,289,3.0,3.0,59,0.00,,,0.00,Wunderground v.1.15,2013-11-30 08:00:00,
2013-11-30 01:05:00,55.6,41.5,29.98,WNW,297,3.0,3.0,59,0.00,,,0.00,Wunderground v.1.15,2013-11-30 08:05:00,
2013-11-30 01:10:00,55.3,41.2,29.98,WNW,300,3.0,4.0,59,0.00,,,0.00,Wunderground v.1.15,2013-11-30 08:10:00,
2013-11-30 01:15:00,55.5,41.4,29.98,WNW,297,3.0,4.0,59,0.00,,,0.00,Wunderground v.1.15,2013-11-30 08:15:00,
2013-11-30 01:20:00,55.5,41.4,29.98,WNW,302,4.0,4.0,59,0.00,,,0.00,Wunderground v.1.15,2013-11-30 08:20:00,
2013-11-30 01:25:00,55.5,41.4,29.98,NW,307,3.0,4.0,59,0.00,,,0.00,Wunderground v.1.15,2013-11-30 08:25:00,
2013-11-30 01:30:00,55.5,41.4,29.98,NW,321,3.0,3.0,59,0.00,,,0.00,Wunderground v.1.15,2013-11-30 08:30:00,
2013-11-30 01:35:00,55.4,41.3,29.98,WNW,301,2.0,3.0,59,0.00,,,0.00,Wunderground v.1.15,2013-11-30 08:35:00,
2013-11-30 01:45:00,55.1,41.5,29.98,North,6,0.0,1.0,60,0.00,,,0.00,Wunderground v.1.15,2013-11-30 08:45:00,
2013-11-30 01:50:00,55.0,41.4,29.98,North,6,0.0,0.0,60,0.00,,,0.00,Wunderground v.1.15,2013-11-30 08:50:00,
2013-11-30 01:55:00,55.0,40.9,29.98,North,356,0.0,0.0,59,0.00,,,0.00,Wunderground v.1.15,2013-11-30 08:55:00,
2013-11-30 02:00:00,55.0,40.9,29.99,North,357,0.0,0.0,59,0.00,,,0.00,Wunderground v.1.15,2013-11-30 09:00:00,
2013-11-30 02:05:00,54.9,41.3,29.98,North,356,0.0,0.0,60,0.00,,,0.00,Wunderground v.1.15,2013-11-30 09:05:00,
2013-11-30 02:15:00,54.9,40.8,29.98,NNW,345,0.0,0.0,59,0.00,,,0.00,Wunderground v.1.15,2013-11-30 09:15:00,
2013-11-30 02:25:00,54.6,40.6,29.98,WNW,301,0.0,0.0,59,0.00,,,0.00,Wunderground v.1.15,2013-11-30 09:25:00,
2013-11-30 02:30:00,54.6,40.6,29.98,WNW,301,0.0,0.0,59,0.00,,,0.00,Wunderground v.1.15,2013-11-30 09:30:00,
2013-11-30 02:35:00,54.5,40.9,29.98,WNW,301,0.0,0.0,60,0.00,,,0.00,Wunderground v.1.15,2013-11-30 09:35:00,
2013-11-30 02:40:00,54.6,41.0,29.98,WNW,301,0.0,0.0,60,0.00,,,0.00,Wunderground v.1.15,2013-11-30 09:40:00,
2013-11-30 02:50:00,55.0,40.5,29.98,WNW,301,0.0,0.0,58,0.00,,,0.00,Wunderground v.1.15,2013-11-30 09:50:00,
2013-11-30 02:55:00,54.9,40.4,29.98,WNW,300,0.0,0.0,58,0.00,,,0.00,Wunderground v.1.15,2013-11-30 09:55:00,
2013-11-30 03:00:00,54.7,40.2,29.98,WNW,301,0.0,0.0,58,0.00,,,0.00,Wunderground v.1.15,2013-11-30 10:00:00,
2013-11-30 03:05:00,54.8,40.3,29.98,WNW,301,0.0,0.0,58,0.00,,,0.00,Wunderground v.1.15,2013-11-30 10:05:00,
2013-11-30 03:10:00,55.2,40.7,29.98,WSW,246,0.0,0.0,58,0.00,,,0.00,Wunderground v.1.15,2013-11-30 10:10:00,
2013-11-30 03:15:00,55.4,40.4,29.97,WNW,291,0.0,1.0,57,0.00,,,0.00,Wunderground v.1.15,2013-11-30 10:15:00,
2013-11-30 03:25:00,54.6,39.2,29.97,West,269,2.0,2.0,56,0.00,,,0.00,Wunderground v.1.15,2013-11-30 10:25:00,
2013-11-30 03:30:00,55.0,39.6,29.97,NW,318,1.0,1.0,56,0.00,,,0.00,Wunderground v.1.15,2013-11-30 10:30:00,
2013-11-30 03:35:00,54.5,39.6,29.98,WNW,297,1.0,1.0,57,0.00,,,0.00,Wunderground v.1.15,2013-11-30 10:35:00,
2013-11-30 03:45:00,55.5,40.5,29.97,West,271,1.0,4.0,57,0.00,,,0.00,Wunderground v.1.15,2013-11-30 10:45:00,
2013-11-30 03:50:00,56.3,40.8,29.97,West,281,3.0,4.0,56,0.00,,,0.00,Wunderground v.1.15,2013-11-30 10:50:00,
2013-11-30 04:00:00,55.4,40.0,29.97,WNW,283,1.0,2.0,56,0.00,,,0.00,Wunderground v.1.15,2013-11-30 11:00:00,
2013-11-30 04:05:00,55.4,40.0,29.97,West,268,1.0,2.0,56,0.00,,,0.00,Wunderground v.1.15,2013-11-30 11:05:00,
2013-11-30 04:10:00,55.6,40.1,29.97,WSW,240,1.0,1.0,56,0.00,,,0.00,Wunderground v.1.15,2013-11-30 11:10:00,
2013-11-30 04:15:00,55.5,40.5,29.97,SW,214,1.0,1.0,57,0.00,,,0.00,Wunderground v.1.15,2013-11-30 11:15:00,
2013-11-30 04:20:00,55.3,40.3,29.97,SSW,205,1.0,2.0,57,0.00,,,0.00,Wunderground v.1.15,2013-11-30 11:20:00,
2013-11-30 04:30:00,54.2,40.2,29.97,West,264,1.0,1.0,59,0.00,,,0.00,Wunderground v.1.15,2013-11-30 11:30:00,
2013-11-30 04:35:00,53.9,40.3,29.97,NW,314,1.0,1.0,60,0.00,,,0.00,Wunderground v.1.15,2013-11-30 11:35:00,
2013-11-30 04:40:00,53.9,40.3,29.97,NW,309,1.0,2.0,60,0.00,,,0.00,Wunderground v.1.15,2013-11-30 11:40:00,
2013-11-30 04:45:00,54.2,39.7,29.97,WNW,292,2.0,3.0,58,0.00,,,0.00,Wunderground v.1.15,2013-11-30 11:45:00,
2013-11-30 04:50:00,54.4,40.4,29.96,NW,326,2.0,2.0,59,0.00,,,0.00,Wunderground v.1.15,2013-11-30 11:50:00,
2013-11-30 04:55:00,53.8,39.8,29.96,NW,319,2.0,2.0,59,0.00,,,0.00,Wunderground v.1.15,2013-11-30 11:55:00,
2013-11-30 05:00:00,53.6,40.0,29.97,NW,319,1.0,1.0,60,0.00,,,0.00,Wunderground v.1.15,2013-11-30 12:00:00,
2013-11-30 05:05:00,53.5,39.9,29.97,NNW,344,0.0,1.0,60,0.00,,,0.00,Wunderground v.1.15,2013-11-30 12:05:00,
2013-11-30 05:15:00,53.5,39.9,29.98,WSW,240,0.0,0.0,60,0.00,,,0.00,Wunderground v.1.15,2013-11-30 12:15:00,
2013-11-30 05:20:00,53.2,39.7,29.97,WSW,240,0.0,0.0,60,0.00,,,0.00,Wunderground v.1.15,2013-11-30 12:20:00,
2013-11-30 05:25:00,53.2,39.7,29.97,WSW,248,0.0,0.0,60,0.00,,,0.00,Wunderground v.1.15,2013-11-30 12:25:00,
2013-11-30 05:30:00,53.3,39.8,29.97,NW,320,1.0,2.0,60,0.00,,,0.00,Wunderground v.1.15,2013-11-30 12:30:00,
2013-11-30 05:40:00,53.7,39.7,29.97,NNW,332,0.0,0.0,59,0.00,,,0.00,Wunderground v.1.15,2013-11-30 12:40:00,
2013-11-30 05:45:00,53.8,39.4,29.98,NNW,330,0.0,0.0,58,0.00,,,0.00,Wunderground v.1.15,2013-11-30 12:45:00,
2013-11-30 05:50:00,54.2,39.3,29.98,NNW,330,0.0,0.0,57,0.00,,,0.00,Wunderground v.1.15,2013-11-30 12:50:00,
2013-11-30 05:55:00,54.0,39.5,29.98,NNW,330,0.0,0.0,58,0.00,,,0.00,Wunderground v.1.15,2013-11-30 12:55:00,
2013-11-30 06:00:00,54.0,39.5,29.97,NW,319,1.0,1.0,58,0.00,,,0.00,Wunderground v.1.15,2013-11-30 13:00:00,
2013-11-30 06:10:00,54.8,39.8,29.98,NW,307,0.0,0.0,57,0.00,,,0.00,Wunderground v.1.15,2013-11-30 13:10:00,
2013-11-30 06:15:00,54.4,39.9,29.98,NW,323,0.0,0.0,58,0.00,,,0.00,Wunderground v.1.15,2013-11-30 13:15:00,
2013-11-30 06:20:00,54.3,39.8,29.98,NW,326,0.0,0.0,58,0.00,,,0.00,Wunderground v.1.15,2013-11-30 13:20:00,
2013-11-30 06:25:00,54.4,39.5,29.99,NW,323,0.0,0.0,57,0.00,,,0.00,Wunderground v.1.15,2013-11-30 13:25:00,
2013-11-30 06:30:00,54.4,39.5,29.99,NW,323,0.0,0.0,57,0.00,,,0.00,Wunderground v.1.15,2013-11-30 13:30:00,
2013-11-30 06:40:00,54.1,39.6,29.99,NNW,345,0.0,0.0,58,0.00,,,0.00,Wunderground v.1.15,2013-11-30 13:40:00,
2013-11-30 06:50:00,54.2,39.3,29.99,North,359,0.0,0.0,57,0.00,,,0.00,Wunderground v.1.15,2013-11-30 13:50:00,
2013-11-30 06:55:00,54.3,38.9,30.00,North,359,0.0,0.0,56,0.00,,,0.00,Wunderground v.1.15,2013-11-30 13:55:00,
2013-11-30 07:00:00,54.2,39.3,30.00,North,358,0.0,0.0,57,0.00,,,0.00,Wunderground v.1.15,2013-11-30 14:00:00,
2013-11-30 07:05:00,54.2,39.3,30.00,NW,304,0.0,0.0,57,0.00,,,0.00,Wunderground v.1.15,2013-11-30 14:05:00,
2013-11-30 07:10:00,54.2,38.8,30.00,WNW,294,0.0,0.0,56,0.00,,,0.00,Wunderground v.1.15,2013-11-30 14:10:00,
2013-11-30 07:20:00,55.2,39.3,30.00,West,266,0.0,3.0,55,0.00,,,0.00,Wunderground v.1.15,2013-11-30 14:20:00,
2013-11-30 07:25:00,55.0,39.1,30.00,WSW,249,1.0,3.0,55,0.00,,,0.00,Wunderground v.1.15,2013-11-30 14:25:00,
2013-11-30 07:30:00,55.1,38.7,30.00,SW,233,1.0,1.0,54,0.00,,,0.00,Wunderground v.1.15,2013-11-30 14:30:00,
2013-11-30 07:35:00,54.9,38.6,30.00,West,263,1.0,1.0,54,0.00,,,0.00,Wunderground v.1.15,2013-11-30 14:35:00,
2013-11-30 07:40:00,54.7,39.3,30.00,WNW,295,0.0,0.0,56,0.00,,,0.00,Wunderground v.1.15,2013-11-30 14:40:00,
2013-11-30 07:50:00,54.4,39.0,30.00,NW,307,0.0,0.0,56,0.00,,,0.00,Wunderground v.1.15,2013-11-30 14:50:00,
2013-11-30 07:55:00,54.5,39.1,30.00,NW,326,0.0,0.0,56,0.00,,,0.00,Wunderground v.1.15,2013-11-30 14:55:00,
2013-11-30 08:00:00,54.8,39.4,30.00,NNW,330,1.0,4.0,56,0.00,,,0.00,Wunderground v.1.15,2013-11-30 15:00:00,
2013-11-30 08:05:00,55.3,39.4,30.00,NW,319,2.0,4.0,55,0.00,,,0.00,Wunderground v.1.15,2013-11-30 15:05:00,
2013-11-30 08:10:00,55.5,39.6,30.00,NW,311,2.0,2.0,55,0.00,,,0.00,Wunderground v.1.15,2013-11-30 15:10:00,
2013-11-30 08:15:00,55.9,39.5,30.00,NW,311,0.0,2.0,54,0.00,,,0.00,Wunderground v.1.15,2013-11-30 15:15:00,
2013-11-30 08:25:00,56.9,38.9,30.00,NW,311,0.0,0.0,51,0.00,,,0.00,Wunderground v.1.15,2013-11-30 15:25:00,
2013-11-30 08:35:00,58.2,38.6,30.00,NW,312,0.0,0.0,48,0.00,,,0.00,Wunderground v.1.15,2013-11-30 15:35:00,
2013-11-30 08:40:00,58.6,39.0,30.00,NW,312,0.0,0.0,48,0.00,,,0.00,Wunderground v.1.15,2013-11-30 15:40:00,
2013-11-30 08:45:00,58.7,39.6,30.00,NW,311,0.0,0.0,49,0.00,,,0.00,Wunderground v.1.15,2013-11-30 15:45:00,
2013-11-30 08:50:00,59.2,39.5,30.00,WSW,252,0.0,0.0,48,0.00,,,0.00,Wunderground v.1.15,2013-11-30 15:50:00,
2013-11-30 09:00:00,61.3,40.3,30.00,SW,222,0.0,0.0,46,0.00,,,0.00,Wunderground v.1.15,2013-11-30 16:00:00,
2013-11-30 09:05:00,62.6,40.9,30.00,WSW,250,0.0,0.0,45,0.00,,,0.00,Wunderground v.1.15,2013-11-30 16:05:00,
2013-11-30 09:15:00,64.3,40.7,30.00,SSE,165,1.0,1.0,42,0.00,,,0.00,Wunderground v.1.15,2013-11-30 16:15:00,
2013-11-30 09:20:00,65.0,40.1,30.00,SSE,158,1.0,2.0,40,0.00,,,0.00,Wunderground v.1.15,2013-11-30 16:20:00,
2013-11-30 09:25:00,64.7,39.8,30.00,SSE,163,2.0,3.0,40,0.00,,,0.00,Wunderground v.1.15,2013-11-30 16:25:00,
2013-11-30 09:30:00,64.8,39.9,30.00,SSW,203,2.0,2.0,40,0.00,,,0.00,Wunderground v.1.15,2013-11-30 16:30:00,
2013-11-30 09:35:00,64.7,40.4,30.00,SSW,200,3.0,4.0,41,0.00,,,0.00,Wunderground v.1.15,2013-11-30 16:35:00,
2013-11-30 09:40:00,64.2,40.0,30.00,SSW,192,3.0,5.0,41,0.00,,,0.00,Wunderground v.1.15,2013-11-30 16:40:00,
2013-11-30 09:45:00,63.6,40.1,30.00,SW,214,3.0,5.0,42,0.00,,,0.00,Wunderground v.1.15,2013-11-30 16:45:00,
2013-11-30 09:50:00,62.8,40.0,30.01,SSW,203,3.0,4.0,43,0.00,,,0.00,Wunderground v.1.15,2013-11-30 16:50:00,
2013-11-30 10:00:00,62.7,40.5,30.01,SSE,147,4.0,4.0,44,0.00,,,0.00,Wunderground v.1.15,2013-11-30 17:00:00,
2013-11-30 10:05:00,62.6,40.9,30.01,SSW,201,5.0,6.0,45,0.00,,,0.00,Wunderground v.1.15,2013-11-30 17:05:00,
2013-11-30 10:10:00,62.8,42.3,30.01,SSE,160,5.0,5.0,47,0.00,,,0.00,Wunderground v.1.15,2013-11-30 17:10:00,
2013-11-30 10:15:00,63.1,42.0,30.01,WSW,258,4.0,5.0,46,0.00,,,0.00,Wunderground v.1.15,2013-11-30 17:15:00,
2013-11-30 10:20:00,63.3,42.7,30.01,SW,233,3.0,4.0,47,0.00,,,0.00,Wunderground v.1.15,2013-11-30 17:20:00,
2013-11-30 10:25:00,63.6,43.0,30.00,SW,224,3.0,4.0,47,0.00,,,0.00,Wunderground v.1.15,2013-11-30 17:25:00,
2013-11-30 10:30:00,63.8,42.6,30.00,SSW,204,3.0,4.0,46,0.00,,,0.00,Wunderground v.1.15,2013-11-30 17:30:00,
2013-11-30 10:40:00,63.8,42.6,30.01,SSE,165,4.0,4.0,46,0.00,,,0.00,Wunderground v.1.15,2013-11-30 17:40:00,
2013-11-30 10:45:00,63.6,42.4,30.01,South,185,4.0,4.0,46,0.00,,,0.00,Wunderground v.1.15,2013-11-30 17:45:00,
2013-11-30 10:50:00,63.3,42.2,30.00,SSE,153,3.0,5.0,46,0.00,,,0.00,Wunderground v.1.15,2013-11-30 17:50:00,
2013-11-30 10:55:00,63.6,42.4,30.00,SE,135,2.0,5.0,46,0.00,,,0.00,Wunderground v.1.15,2013-11-30 17:55:00,
2013-11-30 11:00:00,63.3,42.2,30.00,SE,131,2.0,2.0,46,0.00,,,0.00,Wunderground v.1.15,2013-11-30 18:00:00,
2013-11-30 11:10:00,63.6,43.0,30.00,South,176,1.0,1.0,47,0.00,,,0.00,Wunderground v.1.15,2013-11-30 18:10:00,
2013-11-30 11:20:00,63.7,42.5,30.00,East,89,1.0,1.0,46,0.00,,,0.00,Wunderground v.1.15,2013-11-30 18:20:00,
2013-11-30 11:25:00,63.3,42.7,29.99,ESE,104,0.0,1.0,47,0.00,,,0.00,Wunderground v.1.15,2013-11-30 18:25:00,
2013-11-30 11:30:00,63.4,42.8,29.99,SE,134,0.0,0.0,47,0.00,,,0.00,Wunderground v.1.15,2013-11-30 18:30:00,
2013-11-30 11:35:00,63.8,43.2,29.99,South,173,0.0,3.0,47,0.00,,,0.00,Wunderground v.1.15,2013-11-30 18:35:00,
2013-11-30 11:40:00,63.9,42.7,29.98,East,95,1.0,1.0,46,0.00,,,0.00,Wunderground v.1.15,2013-11-30 18:40:00,
2013-11-30 11:50:00,64.4,43.2,29.97,ESE,122,0.0,0.0,46,0.00,,,0.00,Wunderground v.1.15,2013-11-30 18:50:00,
2013-11-30 11:55:00,64.3,43.1,29.97,SSE,159,0.0,2.0,46,0.00,,,0.00,Wunderground v.1.15,2013-11-30 18:55:00,
2013-11-30 12:00:00,64.7,43.4,29.97,South,169,1.0,2.0,46,0.00,,,0.00,Wunderground v.1.15,2013-11-30 19:00:00,
2013-11-30 12:05:00,64.9,43.6,29.97,SSW,211,1.0,2.0,46,0.00,,,0.00,Wunderground v.1.15,2013-11-30 19:05:00,
2013-11-30 12:10:00,65.1,43.8,29.97,South,183,0.0,3.0,46,0.00,,,0.00,Wunderground v.1.15,2013-11-30 19:10:00,
2013-11-30 12:20:00,65.4,43.5,29.96,South,191,1.0,1.0,45,0.00,,,0.00,Wunderground v.1.15,2013-11-30 19:20:00,
2013-11-30 12:25:00,65.4,43.5,29.96,SW,214,0.0,2.0,45,0.00,,,0.00,Wunderground v.1.15,2013-11-30 19:25:00,
2013-11-30 12:30:00,65.6,43.7,29.96,South,176,1.0,1.0,45,0.00,,,0.00,Wunderground v.1.15,2013-11-30 19:30:00,
2013-11-30 12:35:00,65.8,43.9,29.95,South,177,1.0,2.0,45,0.00,,,0.00,Wunderground v.1.15,2013-11-30 19:35:00,
2013-11-30 12:40:00,65.6,44.3,29.95,South,172,1.0,1.0,46,0.00,,,0.00,Wunderground v.1.15,2013-11-30 19:40:00,
2013-11-30 12:45:00,65.7,43.8,29.96,West,263,1.0,1.0,45,0.00,,,0.00,Wunderground v.1.15,2013-11-30 19:45:00,
2013-11-30 12:55:00,65.7,43.8,29.94,South,191,1.0,2.0,45,0.00,,,0.00,Wunderground v.1.15,2013-11-30 19:55:00,
2013-11-30 13:05:00,66.7,44.1,29.93,SW,214,0.0,1.0,44,0.00,,,0.00,Wunderground v.1.15,2013-11-30 20:05:00,
2013-11-30 13:10:00,66.8,44.2,29.93,SSE,158,0.0,0.0,44,0.00,,,0.00,Wunderground v.1.15,2013-11-30 20:10:00,
2013-11-30 13:15:00,67.0,44.4,29.93,ESE,105,1.0,1.0,44,0.00,,,0.00,Wunderground v.1.15,2013-11-30 20:15:00,
2013-11-30 13:20:00,67.1,43.8,29.93,SE,133,0.0,0.0,43,0.00,,,0.00,Wunderground v.1.15,2013-11-30 20:20:00,
2013-11-30 13:30:00,67.6,44.3,29.93,SSE,160,0.0,3.0,43,0.00,,,0.00,Wunderground v.1.15,2013-11-30 20:30:00,
2013-11-30 13:35:00,67.6,44.3,29.93,South,187,2.0,4.0,43,0.00,,,0.00,Wunderground v.1.15,2013-11-30 20:35:00,
2013-11-30 13:40:00,67.5,44.2,29.92,SSW,194,3.0,3.0,43,0.00,,,0.00,Wunderground v.1.15,2013-11-30 20:40:00,
2013-11-30 13:45:00,67.4,44.1,29.92,SW,226,3.0,3.0,43,0.00,,,0.00,Wunderground v.1.15,2013-11-30 20:45:00,
2013-11-30 13:50:00,67.1,44.4,29.92,SSW,205,2.0,4.0,44,0.00,,,0.00,Wunderground v.1.15,2013-11-30 20:50:00,
2013-11-30 14:00:00,67.9,44.6,29.92,South,185,1.0,1.0,43,0.00,,,0.00,Wunderground v.1.15,2013-11-30 21:00:00,
2013-11-30 14:05:00,67.9,44.0,29.91,SE,143,1.0,1.0,42,0.00,,,0.00,Wunderground v.1.15,2013-11-30 21:05:00,
2013-11-30 14:10:00,68.2,44.8,29.91,WSW,243,1.0,1.0,43,0.00,,,0.00,Wunderground v.1.15,2013-11-30 21:10:00,
2013-11-30 14:15:00,68.6,43.9,29.91,SSE,165,1.0,4.0,41,0.00,,,0.00,Wunderground v.1.15,2013-11-30 21:15:00,
2013-11-30 14:20:00,68.6,44.6,29.91,SW,236,1.0,1.0,42,0.00,,,0.00,Wunderground v.1.15,2013-11-30 21:20:00,
2013-11-30 14:25:00,68.4,44.4,29.90,West,275,0.0,1.0,42,0.00,,,0.00,Wunderground v.1.15,2013-11-30 21:25:00,
2013-11-30 14:35:00,68.5,44.5,29.90,SE,124,1.0,2.0,42,0.00,,,0.00,Wunderground v.1.15,2013-11-30 21:35:00,
2013-11-30 14:45:00,68.9,44.2,29.89,SE,146,1.0,1.0,41,0.00,,,0.00,Wunderground v.1.15,2013-11-30 21:45:00,
2013-11-30 14:50:00,69.1,44.4,29.90,SE,127,0.0,0.0,41,0.00,,,0.00,Wunderground v.1.15,2013-11-30 21:50:00,
2013-11-30 14:55:00,69.2,44.5,29.89,South,177,2.0,2.0,41,0.00,,,0.00,Wunderground v.1.15,2013-11-30 21:55:00,
2013-11-30 15:00:00,69.1,44.4,29.89,South,188,3.0,3.0,41,0.00,,,0.00,Wunderground v.1.15,2013-11-30 22:00:00,
2013-11-30 15:10:00,69.0,44.9,29.89,SSW,198,1.0,1.0,42,0.00,,,0.00,Wunderground v.1.15,2013-11-30 22:10:00,
2013-11-30 15:15:00,69.1,45.0,29.90,SW,226,1.0,1.0,42,0.00,,,0.00,Wunderground v.1.15,2013-11-30 22:15:00,
2013-11-30 15:20:00,69.1,44.4,29.90,SW,217,0.0,1.0,41,0.00,,,0.00,Wunderground v.1.15,2013-11-30 22:20:00,
2013-11-30 15:25:00,68.7,44.7,29.90,SSE,158,2.0,2.0,42,0.00,,,0.00,Wunderground v.1.15,2013-11-30 22:25:00,
2013-11-30 15:30:00,68.3,44.9,29.89,SW,217,3.0,3.0,43,0.00,,,0.00,Wunderground v.1.15,2013-11-30 22:30:00,
2013-11-30 15:35:00,67.8,45.1,29.89,SSW,192,3.0,3.0,44,0.00,,,0.00,Wunderground v.1.15,2013-11-30 22:35:00,
2013-11-30 15:40:00,67.3,45.2,29.90,SW,219,2.0,2.0,45,0.00,,,0.00,Wunderground v.1.15,2013-11-30 22:40:00,
2013-11-30 15:45:00,67.1,45.6,29.89,SW,229,2.0,2.0,46,0.00,,,0.00,Wunderground v.1.15,2013-11-30 22:45:00,
2013-11-30 15:50:00,67.3,45.8,29.89,SW,236,0.0,0.0,46,0.00,,,0.00,Wunderground v.1.15,2013-11-30 22:50:00,
2013-11-30 15:55:00,67.6,45.5,29.89,SW,218,0.0,0.0,45,0.00,,,0.00,Wunderground v.1.15,2013-11-30 22:55:00,
2013-11-30 16:00:00,67.9,45.8,29.89,SSW,211,0.0,0.0,45,0.00,,,0.00,Wunderground v.1.15,2013-11-30 23:00:00,
2013-11-30 16:05:00,67.7,45.6,29.90,SSW,198,0.0,2.0,45,0.00,,,0.00,Wunderground v.1.15,2013-11-30 23:05:00,
2013-11-30 16:15:00,66.7,46.4,29.90,SSW,208,3.0,3.0,48,0.00,,,0.00,Wunderground v.1.15,2013-11-30 23:15:00,
2013-11-30 16:20:00,66.2,46.5,29.90,SSW,206,3.0,3.0,49,0.00,,,0.00,Wunderground v.1.15,2013-11-30 23:20:00,
2013-11-30 16:25:00,65.7,46.5,29.90,SSW,205,2.0,3.0,50,0.00,,,0.00,Wunderground v.1.15,2013-11-30 23:25:00,
2013-11-30 16:35:00,64.7,47.2,29.90,SW,225,2.0,2.0,53,0.00,,,0.00,Wunderground v.1.15,2013-11-30 23:35:00,
2013-11-30 16:40:00,64.4,46.9,29.90,SSW,208,1.0,1.0,53,0.00,,,0.00,Wunderground v.1.15,2013-11-30 23:40:00,
2013-11-30 16:50:00,63.6,46.6,29.91,SSW,205,1.0,1.0,54,0.00,,,0.00,Wunderground v.1.15,2013-11-30 23:50:00,
2013-11-30 16:55:00,62.9,47.0,29.90,SSW,207,0.0,1.0,56,0.00,,,0.00,Wunderground v.1.15,2013-11-30 23:55:00,
2013-11-30 17:00:00,62.4,46.5,29.90,SSW,207,0.0,0.0,56,0.00,,,0.00,Wunderground v.1.15,2013-12-01 00:00:00,
2013-11-30 17:05:00,61.8,46.9,29.90,SSW,207,0.0,0.0,58,0.00,,,0.00,Wunderground v.1.15,2013-12-01 00:05:00,
2013-11-30 17:10:00,61.4,46.5,29.91,SSW,207,0.0,0.0,58,0.00,,,0.00,Wunderground v.1.15,2013-12-01 00:10:00,
2013-11-30 17:20:00,60.8,46.4,29.91,SSW,207,0.0,0.0,59,0.00,,,0.00,Wunderground v.1.15,2013-12-01 00:20:00,
2013-11-30 17:25:00,60.4,46.4,29.91,SSW,207,0.0,0.0,60,0.00,,,0.00,Wunderground v.1.15,2013-12-01 00:25:00,
2013-11-30 17:30:00,60.3,46.4,29.91,SSW,207,0.0,0.0,60,0.00,,,0.00,Wunderground v.1.15,2013-12-01 00:30:00,
2013-11-30 17:35:00,60.1,46.2,29.92,SSW,207,0.0,0.0,60,0.00,,,0.00,Wunderground v.1.15,2013-12-01 00:35:00,
2013-11-30 17:40:00,60.0,46.1,29.92,SSW,207,0.0,0.0,60,0.00,,,0.00,Wunderground v.1.15,2013-12-01 00:40:00,
2013-11-30 17:45:00,59.7,46.2,29.92,SSW,205,0.0,0.0,61,0.00,,,0.00,Wunderground v.1.15,2013-12-01 00:45:00,
2013-11-30 17:55:00,59.3,46.3,29.92,SSW,205,0.0,0.0,62,0.00,,,0.00,Wunderground v.1.15,2013-12-01 00:55:00,
2013-11-30 18:00:00,59.2,46.2,29.92,SSW,205,0.0,0.0,62,0.00,,,0.00,Wunderground v.1.15,2013-12-01 01:00:00,
2013-11-30 18:05:00,59.4,45.9,29.93,SSW,205,0.0,0.0,61,0.00,,,0.00,Wunderground v.1.15,2013-12-01 01:05:00,
2013-11-30 18:10:00,59.1,45.2,29.93,SSW,207,0.0,0.0,60,0.00,,,0.00,Wunderground v.1.15,2013-12-01 01:10:00,
2013-11-30 18:15:00,58.9,45.5,29.93,SSW,205,0.0,0.0,61,0.00,,,0.00,Wunderground v.1.15,2013-12-01 01:15:00,
2013-11-30 18:20:00,59.5,44.2,29.93,SSW,205,0.0,0.0,57,0.00,,,0.00,Wunderground v.1.15,2013-12-01 01:20:00,
2013-11-30 18:25:00,59.8,45.0,29.93,SSW,207,0.0,0.0,58,0.00,,,0.00,Wunderground v.1.15,2013-12-01 01:25:00,
2013-11-30 18:30:00,59.9,44.6,29.93,SSW,205,0.0,0.0,57,0.00,,,0.00,Wunderground v.1.15,2013-12-01 01:30:00,
2013-11-30 18:35:00,60.4,45.1,29.94,SSW,207,0.0,0.0,57,0.00,,,0.00,Wunderground v.1.15,2013-12-01 01:35:00,
2013-11-30 18:45:00,60.6,44.8,29.93,NNW,338,1.0,1.0,56,0.00,,,0.00,Wunderground v.1.15,2013-12-01 01:45:00,
2013-11-30 18:50:00,60.6,44.8,29.93,NNW,340,1.0,1.0,56,0.00,,,0.00,Wunderground v.1.15,2013-12-01 01:50:00,
2013-11-30 18:55:00,60.6,44.8,29.94,North,353,0.0,1.0,56,0.00,,,0.00,Wunderground v.1.15,2013-12-01 01:55:00,
2013-11-30 19:00:00,60.7,44.9,29.94,NNE,19,0.0,0.0,56,0.00,,,0.00,Wunderground v.1.15,2013-12-01 02:00:00,
2013-11-30 19:05:00,60.9,45.1,29.94,North,360,0.0,0.0,56,0.00,,,0.00,Wunderground v.1.15,2013-12-01 02:05:00,
2013-11-30 19:10:00,60.8,45.0,29.93,North,10,0.0,0.0,56,0.00,,,0.00,Wunderground v.1.15,2013-12-01 02:10:00,
2013-11-30 19:15:00,60.7,44.9,29.94,North,11,0.0,0.0,56,0.00,,,0.00,Wunderground v.1.15,2013-12-01 02:15:00,
2013-11-30 19:20:00,60.5,45.2,29.94,North,10,0.0,0.0,57,0.00,,,0.00,Wunderground v.1.15,2013-12-01 02:20:00,
2013-11-30 19:25:00,60.2,44.9,29.94,North,11,0.0,0.0,57,0.00,,,0.00,Wunderground v.1.15,2013-12-01 02:25:00,
2013-11-30 19:35:00,60.0,44.7,29.94,SW,215,0.0,0.0,57,0.00,,,0.00,Wunderground v.1.15,2013-12-01 02:35:00,
2013-11-30 19:40:00,59.8,44.5,29.95,SW,214,0.0,0.0,57,0.00,,,0.00,Wunderground v.1.15,2013-12-01 02:40:00,
2013-11-30 19:45:00,59.5,44.7,29.95,SW,214,0.0,0.0,58,0.00,,,0.00,Wunderground v.1.15,2013-12-01 02:45:00,
2013-11-30 19:50:00,58.9,44.6,29.95,SSW,207,0.0,0.0,59,0.00,,,0.00,Wunderground v.1.15,2013-12-01 02:50:00,
2013-11-30 19:55:00,58.6,44.8,29.95,SSW,207,0.0,0.0,60,0.00,,,0.00,Wunderground v.1.15,2013-12-01 02:55:00,
2013-11-30 20:00:00,58.1,44.7,29.96,SSW,207,0.0,0.0,61,0.00,,,0.00,Wunderground v.1.15,2013-12-01 03:00:00,
2013-11-30 20:10:00,57.2,45.1,29.96,SSW,207,0.0,0.0,64,0.00,,,0.00,Wunderground v.1.15,2013-12-01 03:10:00,
2013-11-30 20:20:00,56.1,44.9,29.96,SSW,207,0.0,0.0,66,0.00,,,0.00,Wunderground v.1.15,2013-12-01 03:20:00,
2013-11-30 20:25:00,56.3,45.1,29.96,SSW,207,0.0,0.0,66,0.00,,,0.00,Wunderground v.1.15,2013-12-01 03:25:00,
2013-11-30 20:35:00,56.1,44.9,29.96,SSW,204,0.0,0.0,66,0.00,,,0.00,Wunderground v.1.15,2013-12-01 03:35:00,
2013-11-30 20:45:00,55.0,44.6,29.97,SSW,204,0.0,0.0,68,0.00,,,0.00,Wunderground v.1.15,2013-12-01 03:45:00,
2013-11-30 20:50:00,54.5,44.5,29.97,SSW,204,0.0,0.0,69,0.00,,,0.00,Wunderground v.1.15,2013-12-01 03:50:00,
2013-11-30 20:55:00,54.6,44.6,29.97,SSW,204,0.0,0.0,69,0.00,,,0.00,Wunderground v.1.15,2013-12-01 03:55:00,
2013-11-30 21:05:00,55.3,44.9,29.97,NNE,29,0.0,0.0,68,0.00,,,0.00,Wunderground v.1.15,2013-12-01 04:05:00,
2013-11-30 21:10:00,55.5,44.7,29.97,ENE,57,0.0,3.0,67,0.00,,,0.00,Wunderground v.1.15,2013-12-01 04:10:00,
2013-11-30 21:20:00,55.8,45.0,29.97,ENE,63,2.0,2.0,67,0.00,,,0.00,Wunderground v.1.15,2013-12-01 04:20:00,
2013-11-30 21:25:00,55.9,44.7,29.98,ENE,64,1.0,2.0,66,0.00,,,0.00,Wunderground v.1.15,2013-12-01 04:25:00,
2013-11-30 21:30:00,56.0,44.4,29.98,NNE,20,0.0,0.0,65,0.00,,,0.00,Wunderground v.1.15,2013-12-01 04:30:00,
2013-11-30 21:35:00,56.1,44.5,29.98,NE,53,0.0,0.0,65,0.00,,,0.00,Wunderground v.1.15,2013-12-01 04:35:00,
2013-11-30 21:40:00,56.0,44.4,29.98,NE,54,0.0,0.0,65,0.00,,,0.00,Wunderground v.1.15,2013-12-01 04:40:00,
2013-11-30 21:50:00,56.5,44.0,29.98,WNW,287,0.0,1.0,63,0.00,,,0.00,Wunderground v.1.15,2013-12-01 04:50:00,
2013-11-30 21:55:00,56.9,44.0,29.98,West,259,0.0,1.0,62,0.00,,,0.00,Wunderground v.1.15,2013-12-01 04:55:00,
2013-11-30 22:00:00,57.3,44.0,29.98,WSW,238,0.0,0.0,61,0.00,,,0.00,Wunderground v.1.15,2013-12-01 05:00:00,
2013-11-30 22:05:00,57.7,44.3,29.99,WSW,250,0.0,0.0,61,0.00,,,0.00,Wunderground v.1.15,2013-12-01 05:05:00,
2013-11-30 22:10:00,57.3,44.0,29.99,WNW,287,1.0,3.0,61,0.00,,,0.00,Wunderground v.1.15,2013-12-01 05:10:00,
2013-11-30 22:15:00,57.2,44.3,29.99,West,276,2.0,3.0,62,0.00,,,0.00,Wunderground v.1.15,2013-12-01 05:15:00,
2013-11-30 22:20:00,57.1,44.6,29.99,WNW,288,1.0,1.0,63,0.00,,,0.00,Wunderground v.1.15,2013-12-01 05:20:00,
2013-11-30 22:25:00,56.5,44.5,29.99,NW,315,1.0,2.0,64,0.00,,,0.00,Wunderground v.1.15,2013-12-01 05:25:00,
2013-11-30 22:30:00,56.3,44.7,29.99,NW,318,2.0,2.0,65,0.00,,,0.00,Wunderground v.1.15,2013-12-01 05:30:00,
2013-11-30 22:35:00,56.5,44.9,29.99,WNW,287,2.0,2.0,65,0.00,,,0.00,Wunderground v.1.15,2013-12-01 05:35:00,
2013-11-30 22:40:00,56.5,44.5,29.99,WNW,285,1.0,2.0,64,0.00,,,0.00,Wunderground v.1.15,2013-12-01 05:40:00,
2013-11-30 22:45:00,56.5,44.0,29.99,WSW,250,1.0,2.0,63,0.00,,,0.00,Wunderground v.1.15,2013-12-01 05:45:00,
2013-11-30 22:50:00,57.1,44.2,30.00,West,273,1.0,2.0,62,0.00,,,0.00,Wunderground v.1.15,2013-12-01 05:50:00,
2013-11-30 23:00:00,57.0,44.1,29.99,West,278,1.0,1.0,62,0.00,,,0.00,Wunderground v.1.15,2013-12-01 06:00:00,
2013-11-30 23:10:00,56.5,44.0,30.00,NW,307,1.0,2.0,63,0.00,,,0.00,Wunderground v.1.15,2013-12-01 06:10:00,
2013-11-30 23:15:00,56.8,43.9,30.00,WNW,301,3.0,4.0,62,0.00,,,0.00,Wunderground v.1.15,2013-12-01 06:15:00,
2013-11-30 23:20:00,56.9,44.0,30.00,WNW,298,3.0,4.0,62,0.00,,,0.00,Wunderground v.1.15,2013-12-01 06:20:00,
2013-11-30 23:25:00,56.5,44.5,30.00,SW,222,3.0,4.0,64,0.00,,,0.00,Wunderground v.1.15,2013-12-01 06:25:00,
2013-11-30 23:30:00,56.0,44.0,30.00,West,269,1.0,1.0,64,0.00,,,0.00,Wunderground v.1.15,2013-12-01 06:30:00,
2013-11-30 23:35:00,55.8,44.2,30.00,SW,233,0.0,1.0,65,0.00,,,0.00,Wunderground v.1.15,2013-12-01 06:35:00,
2013-11-30 23:40:00,55.6,44.4,30.00,SW,222,1.0,2.0,66,0.00,,,0.00,Wunderground v.1.15,2013-12-01 06:40:00,
2013-11-30 23:45:00,55.4,43.8,30.00,SW,229,2.0,4.0,65,0.00,,,0.00,Wunderground v.1.15,2013-12-01 06:45:00,
2013-11-30 23:55:00,55.1,43.9,30.00,West,264,1.0,3.0,66,0.00,,,0.00,Wunderground v.1.15,2013-12-01 06:55:00,